Home   Weather   35°30'N, 79°12'W   Past weeks
Flag for USA

Past Weather in 35°30'N, 79°12'W, USA — Yesterday and Last 2 Weeks

Now
40 °F

Passing clouds.


Feels Like: 34 °F
Forecast: 46 / 38 °F
Wind: 9 mph from East

Location: Raleigh-Durham International Airport

Current Time: Mar 20, 2019 at 1:45:23 am

Latest Report: Mar 20, 2019 at 12:51 am


Visibility: 10 mi

Pressure: 30.34 "Hg

Humidity: 55%

Dew Point: 25 °F

Location of 35°30'N, 79°12'WLocation

Past Weather in 35°30'N, 79°12'W — Graph

°F

35°30'N, 79°12'W Temperature Yesterday

Maximum temperature yesterday: 54 °F (at 3:51 pm)
Minimum temperature yesterday: 33 °F (at 7:51 am)
Average temperature yesterday: 43 °F

High & Low Weather Summary for the Past Weeks

 TemperatureHumidityPressure
High73 °F (Mar 14, 1:51 pm)100% (Mar 9, 12:51 am)30.47 "Hg (Mar 9, 12:51 am)
Low24 °F (Mar 7, 4:51 am)19% (Mar 12, 5:51 pm)29.87 "Hg (Mar 15, 5:51 pm)
Average48 °F58%30.20 "Hg
* Reported Mar 4 10:51 pm — Mar 19 11:51 pm, 35°30'N, 79°12'W. Weather by CustomWeather, © 2019

Note: Actual official high and low records may vary slightly from our data, if they occured in-between our weather recording intervals... More about our weather records

Advertising

35°30'N, 79°12'W Weather History for the Previous 24 Hours

Scroll right to see more
 ConditionsComfort  
Time TempWeatherWind HumidityBarometerVisibility
11:51 pm
Tue, Mar 19
39 °FPassing clouds.6 mph57%30.36 "Hg10 mi
10:51 pm40 °FPassing clouds.5 mph53%30.35 "Hg10 mi
9:51 pm43 °FPassing clouds.5 mph45%30.36 "Hg10 mi
8:51 pm43 °FPassing clouds.5 mph45%30.36 "Hg10 mi
7:51 pm47 °FPassing clouds.6 mph37%30.35 "Hg10 mi
6:51 pm52 °FScattered clouds.8 mph30%30.34 "Hg10 mi
5:51 pm54 °FScattered clouds.9 mph27%30.34 "Hg10 mi
4:51 pm54 °FScattered clouds.9 mph29%30.34 "Hg10 mi
3:51 pm54 °FScattered clouds.9 mph31%30.35 "Hg10 mi
2:51 pm52 °FScattered clouds.5 mph35%30.37 "Hg10 mi
1:51 pm51 °FScattered clouds.10 mph36%30.43 "Hg10 mi
12:51 pm49 °FPartly sunny.5 mph38%30.45 "Hg10 mi
11:51 am48 °FPartly sunny.8 mph41%30.46 "Hg10 mi
10:51 am45 °FPartly sunny.8 mph56%30.47 "Hg10 mi
9:51 am41 °FPartly sunny.8 mph74%30.45 "Hg10 mi
8:51 am37 °FPartly sunny.3 mph89%30.43 "Hg10 mi
7:51 am33 °FFog.6 mph100%30.40 "Hg6 mi
6:51 am34 °FFog.5 mph97%30.40 "Hg6 mi
5:51 am34 °FPassing clouds.6 mph97%30.38 "Hg7 mi
4:51 am35 °FPassing clouds.5 mph96%30.37 "Hg8 mi
3:51 am35 °FHigh level clouds.5 mph96%30.36 "Hg10 mi
2:51 am37 °FHigh level clouds.6 mph93%30.37 "Hg10 mi
1:51 am36 °FPassing clouds.No wind89%30.36 "Hg10 mi
Weather by CustomWeather, © 2019

See weather overview